Back to catalog

ZHANGJIANG GAOKE

AliveWeatherSSO
NORAD 59919·PAYLOAD·🇨🇳 China
This satellite name has not been confirmed by official sources yet.

Launched May 30, 2024 from Jiuquan Satellite Launch Center

Loading…

Next Passes (next 24 hours)

TLE

FreshSource: Space-Track

Epoch: Sep 14, 2026, 14:45 UTC

1 59919U 24105C   26257.61518056  .00001894  00000-0  11554-3 0  9990
2 59919  97.5796 273.5268 0030242 236.9195 122.9131 15.11202146126659

Track ZHANGJIANG GAOKE in real time with AllMySat

Download on the App Store